KUIPER-00129

导读

KUIPER-00151是美国亚马逊“柯伊伯计划”(Project Kuiper)中的一颗近地轨道互联网卫星,于2025年9月25日由联合发射联盟(ULA)发射,隶属于亚马逊打造的全球低轨卫星互联网星座。 本次发射共有27颗柯伊伯卫星入轨,发射完成后星座规模达到129颗,该卫星入轨后将先运行于465公里轨道,后续会提升至预定轨道,助力亚马逊实现2026年7月前完成一半星座部署的目标。柯伊伯计划计划部署超过3200颗卫星,为全球提供高速卫星互联网接入服务。

基本信息
目录编号:
65771
目录名称:
KUIPER-00151
国际标识:
2025-217K
轨道中心:
EARTH
卫星名称:
KUIPER-00151
卫星全名:
KUIPER-00129
卫星状态:
在轨 (已飞行352 天)
发射日期:
2025-09-25 UTC
国别 :
美国 (US)
星等 :
--
该卫星已列入 空间交会检测服务 Space Conjunction Data Service (SCDS) ,当前飞行风险评估等级: 无高风险
轨道信息
数据来源 国际轨道数据 AOE轨道数据
星历时间 2026-09-11T19:47:55+0800
15小时前
查看轨道信息
2026-09-10T14:00:00+0800
1天前
查看轨道信息
半长轴 7007.672km 7007.694km
偏心率 0.0000462 0.0000707
轨道倾角 51.903° 51.904°
近地点辐角 95.455° 96.601°
升交点赤经 301.508° 307.002°
平近点角 264.647° 124.491°
近地点 629.211km 629.061km
远地点 629.859km 630.053km
周期 97.302分钟 97.302分钟
每日圈数 14.799335 14.799265
详细信息
使用方式:
暂无
2D轨道图
3D轨道图
轨道高度分析图
轨道倾角分析图
轨道综合分析图
查看轨道综合分析图
与全量物体交会距离演化趋势
与全量物体交会风险概率演化趋势